TimeEDT,TemperatureF,Dew PointF,Humidity,Sea Level PressureIn,VisibilityMPH,Wind Direction,Wind SpeedMPH,Gust SpeedMPH,PrecipitationIn,Events,Conditions,WindDirDegrees,DateUTC
12:53 AM,62.1,55.9,80,29.80,10.0,East,10.4,-,N/A,,Clear,80,2013-04-11 04:53:00
1:53 AM,62.1,55.0,78,29.78,10.0,East,12.7,-,N/A,,Clear,80,2013-04-11 05:53:00
2:53 AM,62.1,55.0,78,29.76,10.0,ESE,11.5,-,N/A,,Clear,110,2013-04-11 06:53:00
3:53 AM,62.1,55.0,78,29.73,10.0,ESE,11.5,20.7,N/A,,Clear,110,2013-04-11 07:53:00
4:53 AM,62.1,54.0,75,29.73,10.0,SE,5.8,-,N/A,,Partly Cloudy,140,2013-04-11 08:53:00
5:53 AM,62.1,55.0,78,29.77,10.0,NW,5.8,-,N/A,,Mostly Cloudy,320,2013-04-11 09:53:00
6:53 AM,61.0,55.0,81,29.78,10.0,North,8.1,-,N/A,,Unknown,360,2013-04-11 10:53:00
7:53 AM,59.0,57.0,93,29.80,4.0,ENE,6.9,-,0.09,Rain,Light Rain,60,2013-04-11 11:53:00
8:12 AM,59.0,57.2,94,29.84,1.8,Calm,Calm,-,0.05,Rain,Heavy Rain,0,2013-04-11 12:12:00
8:28 AM,59.0,57.2,94,29.82,3.0,Calm,Calm,-,0.12,Rain,Light Rain,0,2013-04-11 12:28:00
8:53 AM,59.0,57.9,96,29.79,2.5,ESE,10.4,-,0.15,Rain,Rain,120,2013-04-11 12:53:00
9:04 AM,59.0,57.2,94,29.80,3.0,ESE,8.1,-,0.02,Rain,Light Rain,110,2013-04-11 13:04:00
9:53 AM,59.0,57.9,96,29.76,10.0,South,13.8,-,0.07,Rain,Light Rain,180,2013-04-11 13:53:00
10:53 AM,60.1,57.9,93,29.70,10.0,SE,18.4,25.3,0.09,,Mostly Cloudy,130,2013-04-11 14:53:00
11:53 AM,64.0,60.1,87,29.73,10.0,South,10.4,-,N/A,,Mostly Cloudy,180,2013-04-11 15:53:00
1:53 PM,64.0,59.0,84,29.74,5.0,SW,3.5,-,0.01,Rain,Light Rain,220,2013-04-11 17:53:00
2:53 PM,64.0,61.0,90,29.70,10.0,ESE,6.9,-,0.00,,Overcast,120,2013-04-11 18:53:00
3:53 PM,64.9,61.0,87,29.66,10.0,SSE,4.6,-,0.01,Rain,Light Rain,160,2013-04-11 19:53:00
4:53 PM,64.9,60.1,84,29.64,10.0,South,8.1,-,0.00,,Overcast,190,2013-04-11 20:53:00
5:53 PM,64.0,57.9,80,29.61,10.0,SW,4.6,-,0.00,,Overcast,230,2013-04-11 21:53:00
6:34 PM,62.6,59.0,88,29.63,2.0,WSW,9.2,-,0.06,Rain,Heavy Rain,250,2013-04-11 22:34:00
6:36 PM,62.6,59.0,88,29.62,1.2,West,5.8,-,0.09,Rain,Heavy Rain,270,2013-04-11 22:36:00
6:49 PM,60.8,60.8,100,29.63,3.0,SW,8.1,-,0.13,Rain,Rain,230,2013-04-11 22:49:00
6:53 PM,61.0,60.1,97,29.62,2.5,WSW,5.8,-,0.14,Rain,Rain,250,2013-04-11 22:53:00
7:01 PM,60.8,60.8,100,29.63,2.0,WSW,5.8,-,0.02,Rain,Light Rain,250,2013-04-11 23:01:00
7:07 PM,60.8,60.8,100,29.63,1.8,WSW,8.1,-,0.04,Rain,Rain,240,2013-04-11 23:07:00
7:25 PM,60.8,60.8,100,29.63,1.8,WSW,5.8,-,0.10,Rain,Rain,240,2013-04-11 23:25:00
7:29 PM,60.8,60.8,100,29.63,1.8,WSW,3.5,-,0.11,Rain,Rain,240,2013-04-11 23:29:00
7:39 PM,60.8,60.8,100,29.63,2.0,WSW,9.2,-,0.14,Rain,Rain,240,2013-04-11 23:39:00
7:49 PM,60.8,60.8,100,29.64,2.5,SW,10.4,-,0.17,Rain,Rain,230,2013-04-11 23:49:00
7:53 PM,60.1,60.1,100,29.63,2.5,WSW,9.2,-,0.18,Rain,Rain,240,2013-04-11 23:53:00
8:01 PM,60.8,60.8,100,29.63,4.0,WSW,8.1,-,0.01,Rain,Light Rain,250,2013-04-12 00:01:00
8:53 PM,59.0,57.0,93,29.63,5.0,SW,9.2,-,0.15,Rain,Rain,230,2013-04-12 00:53:00
9:53 PM,57.9,57.0,97,29.56,10.0,SE,6.9,-,0.06,,Overcast,140,2013-04-12 01:53:00
10:53 PM,57.0,57.0,100,29.56,10.0,SE,6.9,-,N/A,,Overcast,130,2013-04-12 02:53:00
11:53 PM,57.0,57.0,100,29.55,5.0,SE,4.6,-,0.07,Rain,Light Rain,140,2013-04-12 03:53:00